PAL874 RCTP-RPLL

Flight info

Callsign PAL874
Flight time N/A
Altitude 34000
Route RCTP/05R TINHO1A TINHO Q11 POTIB M646 LAO/N0462F350 B462 CAB CAB3R RPLL/06
Aircraft A21N/M-SDE3FGHIRWY/LB1

Departure

Time 2026-05-05 02:58
Airport Taiwan Taoyuan International Airport (RCTP)

Arrival

Time N/A
Airport Ninoy Aquino International Airport (RPLL)
Time Latitude Longitude Altitude Speed Heading
2026-05-05 02:21 25.08076 121.24027 113 ft 0 kts 319°
2026-05-05 02:38 25.08067 121.24036 113 ft 2 kts 329°
2026-05-05 02:38 25.08054 121.24043 113 ft 2 kts 340°
2026-05-05 02:39 25.08042 121.24046 113 ft 2 kts 350°
2026-05-05 02:39 25.08024 121.24047 113 ft 2 kts
2026-05-05 02:39 25.08007 121.24043 113 ft 2 kts 16°
2026-05-05 02:39 25.07993 121.24040 113 ft 2 kts 12°
2026-05-05 02:40 25.07984 121.24037 113 ft 2 kts
2026-05-05 02:40 25.07969 121.24040 113 ft 2 kts 333°
2026-05-05 02:40 25.07957 121.24049 113 ft 2 kts 306°
2026-05-05 02:40 25.07951 121.24064 113 ft 2 kts 280°
2026-05-05 02:41 25.07951 121.24080 113 ft 2 kts 252°
2026-05-05 02:41 25.07956 121.24091 113 ft 0 kts 231°
2026-05-05 02:41 25.07961 121.24097 113 ft 0 kts 228°
2026-05-05 02:44 25.07958 121.24093 113 ft 1 kts 229°
2026-05-05 02:44 25.07951 121.24084 113 ft 2 kts 229°
2026-05-05 02:45 25.07943 121.24075 113 ft 2 kts 229°
2026-05-05 02:45 25.07930 121.24058 113 ft 3 kts 229°
2026-05-05 02:45 25.07908 121.24030 113 ft 4 kts 229°
2026-05-05 02:45 25.07888 121.24003 113 ft 4 kts 229°
2026-05-05 02:46 25.07864 121.23972 113 ft 5 kts 229°
2026-05-05 02:46 25.07837 121.23938 113 ft 6 kts 229°
2026-05-05 02:46 25.07807 121.23900 113 ft 7 kts 229°
2026-05-05 02:46 25.07772 121.23856 113 ft 7 kts 229°
2026-05-05 02:47 25.07736 121.23808 113 ft 8 kts 229°
2026-05-05 02:47 25.07695 121.23756 113 ft 9 kts 230°
2026-05-05 02:47 25.07651 121.23701 113 ft 9 kts 228°
2026-05-05 02:47 25.07604 121.23641 113 ft 10 kts 229°
2026-05-05 02:48 25.07555 121.23578 113 ft 11 kts 229°
2026-05-05 02:48 25.07503 121.23511 113 ft 11 kts 229°
2026-05-05 02:48 25.07449 121.23443 113 ft 12 kts 229°
2026-05-05 02:48 25.07392 121.23371 113 ft 12 kts 229°
2026-05-05 02:49 25.07338 121.23302 113 ft 11 kts 230°
2026-05-05 02:49 25.07288 121.23237 113 ft 10 kts 229°
2026-05-05 02:49 25.07236 121.23183 113 ft 9 kts 205°
2026-05-05 02:49 25.07177 121.23200 113 ft 8 kts 142°
2026-05-05 02:50 25.07132 121.23243 113 ft 8 kts 139°
2026-05-05 02:50 25.07084 121.23271 113 ft 8 kts 180°
2026-05-05 02:50 25.07032 121.23235 113 ft 9 kts 227°
2026-05-05 02:50 25.06987 121.23178 113 ft 10 kts 229°
2026-05-05 02:51 25.06937 121.23114 113 ft 11 kts 228°
2026-05-05 02:51 25.06879 121.23041 113 ft 13 kts 229°
2026-05-05 02:51 25.06814 121.22959 113 ft 14 kts 229°
2026-05-05 02:51 25.06749 121.22875 113 ft 13 kts 229°
2026-05-05 02:52 25.06688 121.22799 113 ft 12 kts 229°
2026-05-05 02:52 25.06632 121.22729 113 ft 11 kts 228°
2026-05-05 02:52 25.06580 121.22662 113 ft 11 kts 229°
2026-05-05 02:52 25.06529 121.22597 113 ft 11 kts 229°
2026-05-05 02:53 25.06493 121.22551 113 ft 11 kts 229°
2026-05-05 02:53 25.06476 121.22530 113 ft 11 kts 229°
2026-05-05 02:53 25.06369 121.22392 113 ft 11 kts 229°
2026-05-05 02:53 25.06314 121.22323 113 ft 12 kts 229°
2026-05-05 02:54 25.06266 121.22263 113 ft 7 kts 225°
2026-05-05 02:54 25.06219 121.22247 113 ft 6 kts 158°
2026-05-05 02:54 25.06181 121.22269 113 ft 6 kts 140°
2026-05-05 02:54 25.06145 121.22303 113 ft 6 kts 139°
2026-05-05 02:55 25.06111 121.22341 113 ft 7 kts 122°
2026-05-05 02:55 25.06115 121.22390 113 ft 6 kts 57°
2026-05-05 02:55 25.06129 121.22408 113 ft 0 kts 47°
2026-05-05 02:57 25.06132 121.22412 113 ft 6 kts 47°
2026-05-05 02:57 25.06643 121.23060 113 ft 124 kts 49°
2026-05-05 02:57 25.07347 121.23959 131 ft 178 kts 50°
2026-05-05 02:58 25.08140 121.24983 734 ft 179 kts 50°
2026-05-05 02:58 25.08964 121.26029 1410 ft 182 kts 51°
2026-05-05 02:58 25.09765 121.27084 2056 ft 182 kts 52°
2026-05-05 02:58 25.10598 121.28185 2348 ft 195 kts 52°
2026-05-05 02:59 25.11510 121.29382 2640 ft 210 kts 50°
2026-05-05 02:59 25.12542 121.30589 2890 ft 228 kts 48°
2026-05-05 02:59 25.13680 121.31929 3180 ft 246 kts 53°
2026-05-05 02:59 25.14340 121.33400 3455 ft 257 kts 83°
2026-05-05 03:00 25.14008 121.35504 4117 ft 260 kts 121°
2026-05-05 03:00 25.12743 121.36882 4850 ft 261 kts 143°
2026-05-05 03:00 25.11252 121.38014 5532 ft 263 kts 143°
2026-05-05 03:00 25.09756 121.39188 6172 ft 266 kts 142°
2026-05-05 03:01 25.08270 121.40398 6844 ft 268 kts 141°
2026-05-05 03:01 25.06753 121.41661 7516 ft 271 kts 140°
2026-05-05 03:01 25.05270 121.42913 8137 ft 274 kts 140°
2026-05-05 03:01 25.03740 121.44216 8766 ft 277 kts 140°
2026-05-05 03:02 25.02212 121.45525 9367 ft 280 kts 139°
2026-05-05 03:02 25.00672 121.46846 9942 ft 284 kts 139°
2026-05-05 03:02 24.99095 121.48202 10430 ft 291 kts 139°
2026-05-05 03:02 24.97454 121.49617 10692 ft 306 kts 139°
2026-05-05 03:03 24.95744 121.51093 10949 ft 320 kts 139°
2026-05-05 03:03 24.93955 121.52633 11254 ft 332 kts 139°
2026-05-05 03:03 24.92115 121.54213 11766 ft 336 kts 139°
2026-05-05 03:03 24.90275 121.55793 12326 ft 339 kts 139°
2026-05-05 03:04 24.88404 121.57399 12879 ft 341 kts 139°
2026-05-05 03:04 24.86529 121.59010 13431 ft 343 kts 139°
2026-05-05 03:04 24.84654 121.60619 13969 ft 345 kts 139°
2026-05-05 03:04 24.82753 121.62252 14498 ft 347 kts 139°
2026-05-05 03:05 24.80830 121.63902 15018 ft 349 kts 139°
2026-05-05 03:05 24.78911 121.65549 15523 ft 351 kts 140°
2026-05-05 03:05 24.76995 121.67193 16015 ft 353 kts 140°
2026-05-05 03:05 24.75040 121.68869 16503 ft 355 kts 140°
2026-05-05 03:06 24.73076 121.70553 16979 ft 357 kts 140°
2026-05-05 03:06 24.71118 121.72231 17441 ft 359 kts 140°
2026-05-05 03:06 24.69137 121.73927 17894 ft 360 kts 140°
2026-05-05 03:06 24.67138 121.75639 18338 ft 362 kts 140°
2026-05-05 03:07 24.65154 121.77336 18764 ft 364 kts 140°
2026-05-05 03:07 24.63146 121.79054 19183 ft 366 kts 140°
2026-05-05 03:07 24.61124 121.80783 19593 ft 368 kts 140°
2026-05-05 03:07 24.59101 121.82511 19992 ft 370 kts 140°
2026-05-05 03:08 24.57056 121.84259 20385 ft 372 kts 140°
2026-05-05 03:08 24.55001 121.86015 20770 ft 374 kts 141°
2026-05-05 03:08 24.52943 121.87771 21146 ft 375 kts 141°
2026-05-05 03:08 24.50876 121.89535 21511 ft 377 kts 141°
2026-05-05 03:09 24.48799 121.91307 21867 ft 379 kts 141°
2026-05-05 03:09 24.46697 121.93100 22219 ft 381 kts 141°
2026-05-05 03:09 24.44604 121.94884 22559 ft 383 kts 141°
2026-05-05 03:09 24.42502 121.96674 22892 ft 384 kts 141°
2026-05-05 03:10 24.40380 121.98481 23218 ft 386 kts 141°
2026-05-05 03:10 24.38223 122.00284 23535 ft 388 kts 145°
2026-05-05 03:10 24.35749 122.01569 23794 ft 394 kts 163°
2026-05-05 03:10 24.33033 122.01904 24084 ft 399 kts 182°
2026-05-05 03:11 24.30318 122.01326 24395 ft 403 kts 194°
2026-05-05 03:11 24.27618 122.00442 24708 ft 404 kts 195°
2026-05-05 03:11 24.24919 121.99532 24984 ft 406 kts 195°
2026-05-05 03:11 24.22232 121.98631 25264 ft 408 kts 195°
2026-05-05 03:12 24.19480 121.97718 25549 ft 409 kts 195°
2026-05-05 03:12 24.16758 121.96822 25826 ft 411 kts 195°
2026-05-05 03:12 24.14032 121.95928 26093 ft 412 kts 195°
2026-05-05 03:12 24.11262 121.95023 26356 ft 413 kts 195°
2026-05-05 03:13 24.08539 121.94135 26609 ft 415 kts 195°
2026-05-05 03:13 24.05756 121.93228 26860 ft 416 kts 195°
2026-05-05 03:13 24.02950 121.92315 27107 ft 417 kts 195°
2026-05-05 03:13 24.00182 121.91415 27345 ft 419 kts 195°
2026-05-05 03:14 23.97367 121.90499 27583 ft 420 kts 195°
2026-05-05 03:14 23.94576 121.89593 27815 ft 421 kts 195°
2026-05-05 03:14 23.91764 121.88679 28045 ft 423 kts 195°
2026-05-05 03:14 23.88945 121.87764 28272 ft 424 kts 195°
2026-05-05 03:15 23.86114 121.86845 28497 ft 425 kts 195°
2026-05-05 03:15 23.83260 121.85920 28720 ft 426 kts 195°
2026-05-05 03:15 23.80431 121.85002 28936 ft 428 kts 195°
2026-05-05 03:15 23.77560 121.84071 29153 ft 429 kts 195°
2026-05-05 03:16 23.74698 121.83143 29364 ft 430 kts 195°
2026-05-05 03:16 23.71808 121.82207 29571 ft 432 kts 195°
2026-05-05 03:16 23.68961 121.81286 29773 ft 433 kts 195°
2026-05-05 03:16 23.66067 121.80350 29975 ft 434 kts 195°
2026-05-05 03:17 23.63128 121.79400 30178 ft 435 kts 195°
2026-05-05 03:17 23.60233 121.78464 30373 ft 436 kts 195°
2026-05-05 03:17 23.57322 121.77523 30565 ft 438 kts 195°
2026-05-05 03:17 23.54389 121.76572 30755 ft 439 kts 195°
2026-05-05 03:18 23.51500 121.75635 30938 ft 440 kts 195°
2026-05-05 03:18 23.48561 121.74683 31119 ft 441 kts 195°
2026-05-05 03:18 23.45627 121.73734 31305 ft 442 kts 195°
2026-05-05 03:18 23.42653 121.72772 31547 ft 441 kts 195°
2026-05-05 03:19 23.36808 121.70882 32053 ft 439 kts 195°
2026-05-05 03:19 23.33879 121.69938 32285 ft 439 kts 195°
2026-05-05 03:19 23.30871 121.68969 32488 ft 439 kts 195°
2026-05-05 03:20 23.27958 121.68031 32658 ft 440 kts 195°
2026-05-05 03:20 23.25003 121.67080 32826 ft 441 kts 195°
2026-05-05 03:20 23.22092 121.66143 32992 ft 441 kts 195°
2026-05-05 03:20 23.20127 121.65511 33105 ft 442 kts 195°
2026-05-05 03:21 23.13241 121.63299 33488 ft 443 kts 195°
2026-05-05 03:21 23.10313 121.62359 33645 ft 443 kts 195°
2026-05-05 03:21 23.07362 121.61412 33800 ft 444 kts 195°
2026-05-05 03:22 23.04384 121.60457 33954 ft 444 kts 195°
2026-05-05 03:22 23.01411 121.59502 34031 ft 445 kts 195°
2026-05-05 03:22 22.95480 121.57600 34038 ft 446 kts 195°
2026-05-05 03:23 22.89562 121.55705 34039 ft 446 kts 195°
2026-05-05 03:23 22.83607 121.53806 34039 ft 447 kts 194°
2026-05-05 03:24 22.77623 121.51901 34040 ft 447 kts 194°
2026-05-05 03:24 22.71627 121.49991 34040 ft 447 kts 194°
2026-05-05 03:25 22.65733 121.47914 34039 ft 449 kts 199°
2026-05-05 03:25 22.59936 121.45385 34040 ft 449 kts 200°
2026-05-05 03:26 22.54116 121.42821 34040 ft 449 kts 200°
2026-05-05 03:26 22.48357 121.40288 34040 ft 449 kts 200°
2026-05-05 03:27 22.42581 121.37751 34040 ft 449 kts 200°
2026-05-05 03:27 22.36799 121.35214 34040 ft 449 kts 200°
2026-05-05 03:28 22.31020 121.32681 34039 ft 449 kts 200°
2026-05-05 03:28 22.25223 121.30143 34040 ft 449 kts 200°
2026-05-05 03:29 22.19440 121.27612 34040 ft 449 kts 200°
2026-05-05 03:29 22.13662 121.25087 34040 ft 449 kts 200°
2026-05-05 03:30 22.07882 121.22562 34040 ft 449 kts 200°
2026-05-05 03:30 22.03057 121.20458 34040 ft 449 kts 200°